Location: Innsbruck
(47.2657°N, 11.3914°E)
Time: 21:49:37
(UTC+01:00)

BEESAT 2 - Pass Details

Date: 05 December 2021
Orbit: 498 x 513 km, 64.9° (Epoch: 24 January)

Event Time Altitude Azimuth Distance (km) Brightness Sun altitude
Exits shadow 06:36:05 15° 314° (NW) 1,476 ? -11.3°
Maximum altitude 06:39:14 58° 238° (WSW) 607 ? -10.8°
Drops below altitude 10° 06:43:03 10° 158° (SSE) 1,732 ? -10.2°
Sets 06:45:13 0° 155° (SSE) 2,611 ? -9.8°
